[[{"header":{"parameterUnit":"m.s-1","parameterCategory":1,"la1":30.2991,"la2":30.254,"lo1":-89.0895,"lo2":-89.0444,"dy":0.0017,"dx":0.0017,"nx":28,"ny":28,"refTime":"2023-04-02T21:00:00:Z","depth":0,"parameterNumber":2,"parameterNumberName":"U-component_of_WINDS"},"data":[0,0,0,0,0,0,0,0,0,0,0,0,0,0,0,0,0,0,0,0,0,0,0,0,0,0,0,0,0,0,0,0,0,0,0,0,0,0,0,0,0,0,0,0,0,0,0,0,0,0,0,0,0,0,0,0,0,0,-1.8781,-1.8781,0,-1.8774,-1.8774,-1.8774,-1.8747,-1.8746,-1.8745,-1.8745,-1.8738,-1.8738,-1.8739,0,0,0,0,0,0,0,0,0,0,0,0,0,-1.8772,-1.8772,-1.8781,-1.8781,-1.8781,-1.8774,-1.8774,-1.8774,-1.8747,-1.8746,-1.8745,-1.8745,-1.8738,-1.8738,-1.8739,0,0,0,0,0,0,0,0,0,0,0,0,0,-1.8771,-1.8772,-1.8781,-1.8767,-1.8765,-1.8774,-1.8774,-1.8774,-1.8747,-1.8746,-1.8745,-1.8744,-1.8738,-1.8738,-1.8739,-1.8761,0,0,-1.874,-1.8741,0,0,0,0,0,0,0,0,-1.8772,-1.8772,-1.8769,-1.8768,-1.8766,-1.876,-1.8768,-1.8769,-1.8747,-1.8754,-1.8745,-1.8744,-1.8746,-1.8746,-1.8747,-1.876,-1.876,-1.874,-1.8741,-1.8741,-1.8741,0,0,0,0,0,0,0,-1.8772,-1.8772,-1.8778,-1.8769,-1.8767,-1.8761,-1.8759,-1.8768,-1.8755,-1.8753,-1.8751,-1.8751,-1.8745,-1.8746,-1.8746,-1.876,-1.874,-1.8741,-1.8741,-1.8742,-1.8791,-1.8792,0,0,0,0,0,0,-1.8774,-1.8772,-1.8778,-1.8778,-1.8767,-1.8762,-1.876,-1.8763,-1.8755,-1.8753,-1.8752,-1.875,-1.8745,-1.8746,-1.8746,-1.877,-1.8741,-1.8742,-1.8742,-1.879,-1.8791,-1.8792,0,0,0,0,0,0,-1.8774,-1.8774,-1.8779,-1.8775,-1.8775,-1.8763,-1.8766,-1.8763,-1.8764,-1.8754,-1.8751,-1.8755,-1.8745,-1.8745,-1.8757,-1.8769,-1.8742,-1.8742,-1.8789,-1.879,-1.8792,-1.882,0,0,0,0,0,0,-1.8773,-1.8775,-1.8783,-1.8775,-1.8775,-1.879,-1.8767,-1.8764,-1.8765,-1.8762,-1.8756,-1.8754,-1.8744,-1.8756,-1.8758,-1.877,-1.8743,-1.8788,-1.879,-1.8791,-1.8817,-1.8822,-1.8826,0,0,0,0,0,-1.8773,-1.8791,-1.8783,-1.8784,-1.8785,-1.8791,-1.8791,-1.8778,-1.8766,-1.8774,-1.8768,-1.8754,-1.8768,-1.8758,-1.8759,-1.8772,-1.8787,-1.8789,-1.8791,-1.8816,-1.8821,-1.8825,0,0,0,0,0,0,-1.8801,-1.879,-1.8781,-1.8797,-1.8795,-1.8786,-1.8796,-1.8785,-1.8786,-1.8783,-1.8769,-1.8767,-1.8781,-1.8778,-1.8766,-1.8792,-1.8775,-1.8778,-1.8794,-1.8799,-1.8802,-1.8802,-1.8743,0,0,0,0,0,-1.8809,-1.8814,-1.8805,-1.882,-1.8819,-1.8808,-1.881,-1.8801,-1.8798,-1.8797,-1.8791,-1.8789,-1.8793,-1.8796,-1.8799,-1.8818,-1.8815,-1.8827,-1.8831,-1.8834,-1.8836,-1.8845,-1.8849,-1.8799,-1.8799,-1.8799,0,0,-1.8825,-1.882,-1.8824,-1.8825,-1.8822,-1.8828,-1.8807,-1.8815,-1.8819,-1.8798,-1.8809,-1.8805,-1.8802,-1.8817,-1.8823,-1.8814,-1.885,-1.8837,-1.884,-1.884,-1.8847,-1.8852,-1.8856,-1.8801,-1.8801,-1.88,0,0,-1.8858,-1.8855,-1.8866,-1.8864,-1.886,-1.8853,-1.8856,-1.8849,-1.8845,-1.8856,-1.884,-1.8845,-1.8852,-1.885,-1.885,-1.8883,-1.887,-1.8884,-1.8905,-1.8913,-1.8917,-1.8921,-1.8931,-1.8935,-1.8887,-1.8887,-1.8887,0,-1.8878,-1.8886,-1.8874,-1.8882,-1.8882,-1.8864,-1.8876,-1.8875,-1.8872,-1.8873,-1.8863,-1.8872,-1.8868,-1.8882,-1.889,-1.8891,-1.8893,-1.8884,-1.8918,-1.8921,-1.8924,-1.8933,-1.8938,-1.8888,-1.8888,-1.8888,-1.8888,0,-1.8912,-1.8918,-1.8928,-1.8925,-1.8927,-1.8937,-1.8926,-1.8929,-1.892,-1.8914,-1.8924,-1.892,-1.8921,-1.8925,-1.8916,-1.8937,-1.8932,-1.892,-1.8903,-1.893,-1.8939,-1.8943,-1.8891,-1.889,-1.889,-1.8889,0,0,-1.896,-1.8951,-1.8954,-1.8953,-1.8948,-1.8952,-1.8961,-1.8962,-1.8965,-1.8965,-1.8971,-1.8978,-1.8967,-1.8967,-1.8959,-1.8967,-1.8991,-1.8954,-1.8954,-1.896,-1.9013,-1.902,-1.9024,-1.8983,-1.8984,-1.8985,-1.9012,0,-1.8989,-1.9004,-1.8993,-1.9009,-1.9014,-1.8998,-1.9006,-1.9003,-1.8998,-1.9001,-1.8995,-1.9,-1.8986,-1.8986,-1.8993,-1.8986,-1.9001,-1.8985,-1.8989,-1.8989,-1.8988,-1.9029,-1.9037,-1.9063,-1.9016,-1.9016,-1.9017,0,-1.9026,-1.9026,-1.9043,-1.9036,-1.9038,-1.9045,-1.9045,-1.9049,-1.9046,-1.9041,-1.9042,-1.9031,-1.9039,-1.9024,-1.9034,-1.9023,-1.9025,-1.9022,-1.9023,-1.9021,-1.9003,-1.9027,-1.9072,-1.9075,-1.9022,-1.9022,-1.9021,0,-1.9057,-1.9062,-1.9073,-1.9072,-1.9065,-1.907,-1.9068,-1.9064,-1.9065,-1.9066,-1.9066,-1.9068,-1.9068,-1.907,-1.906,-1.9049,-1.9072,-1.9055,-1.9067,-1.9068,-1.9071,-1.9071,-1.9115,-1.9075,-1.9075,-1.9075,-1.9075,0,-1.909,-1.9101,-1.9087,-1.9093,-1.9104,-1.9092,-1.9104,-1.9099,-1.9096,-1.9101,-1.9088,-1.9093,-1.908,-1.9084,-1.9076,-1.9086,-1.9087,-1.9083,-1.908,-1.9083,-1.9083,-1.9082,-1.9079,-1.9076,-1.9076,-1.9076,-1.9076,0,-1.9127,-1.9118,-1.9128,-1.912,-1.9119,-1.9127,-1.9121,-1.9126,-1.912,-1.9127,-1.9128,-1.9118,-1.9122,-1.9112,-1.9115,-1.911,-1.9123,-1.9119,-1.9124,-1.9122,-1.9134,-1.9132,-1.9177,-1.9182,-1.9141,-1.9141,-1.9142,0,-1.9148,-1.9155,-1.9149,-1.9151,-1.9149,-1.9153,-1.9154,-1.9143,-1.9145,-1.9142,-1.9148,-1.915,-1.9151,-1.9158,-1.9151,-1.9153,-1.9148,-1.9163,-1.9148,-1.915,-1.9146,-1.9145,-1.9145,-1.9166,-1.9166,-1.9167,-1.9167,0,-1.9185,-1.9181,-1.9183,-1.9183,-1.9185,-1.9185,-1.9184,-1.9187,-1.9175,-1.9178,-1.9181,-1.9182,-1.9184,-1.9187,-1.9187,-1.9184,-1.9173,-1.9173,-1.9175,-1.9177,-1.9179,-1.9177,-1.9131,-1.9171,-1.9171,-1.917,-1.917,-1.917,-1.9214,-1.9219,-1.9215,-1.9218,-1.9216,-1.9216,-1.922,-1.9214,-1.9217,-1.9218,-1.9211,-1.9216,-1.9213,-1.9212,-1.9211,-1.9214,-1.9207,-1.9211,-1.9212,-1.9212,-1.9214,-1.918,-1.9214,-1.9214,-1.9214,-1.9214,-1.9214,0,-1.9249,-1.9246,-1.9249,-1.9247,-1.925,-1.924,-1.9238,-1.9241,-1.9245,-1.9243,-1.9244,-1.9248,-1.9251,-1.9244,-1.9246,-1.925,-1.9245,-1.925,-1.9249,-1.9248,-1.9221,-1.9218,-1.9254,-1.9254,-1.9254,-1.9254,-1.9254,-1.9254,-1.9268,-1.9276,-1.9271,-1.9279,-1.9275,-1.928,-1.9279,-1.9279,-1.9277,-1.9282,-1.9284,-1.928,-1.9276,-1.9277,-1.9278,-1.9276,-1.9277,-1.9284,-1.928,-1.9254,-1.925,-1.9247,-1.9243,-1.9285,-1.9285,-1.9307,-1.9307,-1.9307]},{"header":{"parameterUnit":"m.s-1","parameterCategory":1,"la1":30.2991,"la2":30.254,"lo1":-89.0895,"lo2":-89.0444,"dy":0.0017,"dx":0.0017,"nx":28,"ny":28,"refTime":"2023-04-02T21:00:00:Z","depth":0,"parameterNumber":3,"parameterNumberName":"V-component_of_WINDS"},"data":[0,0,0,0,0,0,0,0,0,0,0,0,0,0,0,0,0,0,0,0,0,0,0,0,0,0,0,0,0,0,0,0,0,0,0,0,0,0,0,0,0,0,0,0,0,0,0,0,0,0,0,0,0,0,0,0,0,0,3.511,3.5111,0,3.5205,3.5206,3.5208,3.522,3.5219,3.5219,3.5218,3.5312,3.5315,3.5319,0,0,0,0,0,0,0,0,0,0,0,0,0,3.4935,3.4938,3.5109,3.5111,3.5112,3.5205,3.5207,3.5208,3.522,3.5219,3.5218,3.5217,3.5311,3.5315,3.5319,0,0,0,0,0,0,0,0,0,0,0,0,0,3.5019,3.4939,3.5109,3.513,3.5132,3.5205,3.5207,3.5208,3.5221,3.5219,3.5218,3.5217,3.531,3.5315,3.532,3.5377,0,0,3.5335,3.5337,0,0,0,0,0,0,0,0,3.5014,3.5025,3.5125,3.5128,3.5132,3.52,3.518,3.5265,3.5221,3.5187,3.5218,3.5216,3.5276,3.5283,3.5304,3.5382,3.5386,3.5335,3.5338,3.5341,3.5342,0,0,0,0,0,0,0,3.5008,3.5021,3.5147,3.5127,3.5131,3.5133,3.5143,3.5196,3.5237,3.519,3.5191,3.5202,3.5277,3.5299,3.5306,3.5387,3.5335,3.534,3.5343,3.5345,3.552,3.5521,0,0,0,0,0,0,3.4999,3.5016,3.5144,3.515,3.5068,3.5137,3.5149,3.5179,3.5237,3.5245,3.5203,3.5203,3.5291,3.53,3.531,3.5384,3.534,3.5345,3.5348,3.5518,3.552,3.5522,0,0,0,0,0,0,3.4995,3.501,3.514,3.5084,3.51,3.5142,3.5175,3.5182,3.5204,3.5247,3.5254,3.5219,3.5291,3.5303,3.5361,3.5387,3.5347,3.5352,3.5516,3.5519,3.5521,3.553,0,0,0,0,0,0,3.499,3.5009,3.5032,3.5084,3.5103,3.5191,3.5177,3.5184,3.5213,3.5213,3.5264,3.5271,3.529,3.5354,3.5366,3.5393,3.5356,3.5514,3.5517,3.552,3.5528,3.5533,3.5537,0,0,0,0,0,3.4984,3.5029,3.5033,3.5048,3.5133,3.5193,3.5204,3.5226,3.5215,3.5238,3.5267,3.5269,3.5382,3.536,3.5374,3.5403,3.5513,3.5517,3.552,3.5526,3.5532,3.5537,0,0,0,0,0,0,3.4977,3.5036,3.5041,3.5105,3.5144,3.5195,3.5225,3.5232,3.5273,3.5271,3.5297,3.5308,3.5366,3.539,3.5364,3.5463,3.5446,3.5453,3.5446,3.5452,3.5456,3.545,3.536,0,0,0,0,0,3.4983,3.5028,3.5076,3.5128,3.5147,3.5183,3.5209,3.5224,3.5265,3.5281,3.5313,3.5352,3.5396,3.5425,3.5468,3.5531,3.5543,3.5558,3.5562,3.5565,3.5571,3.5609,3.5616,3.5534,3.5534,3.5534,0,0,3.4996,3.5034,3.506,3.5128,3.5159,3.5205,3.5196,3.5244,3.5278,3.5288,3.5346,3.5371,3.5416,3.5478,3.5507,3.5499,3.5597,3.557,3.5573,3.5577,3.5613,3.5621,3.5628,3.5537,3.5536,3.5536,0,0,3.5043,3.5075,3.5123,3.5156,3.5205,3.5228,3.524,3.529,3.5308,3.5367,3.5376,3.5416,3.5491,3.5524,3.555,3.5611,3.5616,3.5624,3.5648,3.5684,3.5691,3.5697,3.572,3.5728,3.563,3.563,3.563,0,3.5052,3.5121,3.5146,3.5195,3.5225,3.5237,3.5286,3.5316,3.5376,3.5396,3.5387,3.5484,3.5515,3.5586,3.5601,3.5621,3.5635,3.5619,3.5688,3.5694,3.57,3.5723,3.5731,3.5631,3.563,3.563,3.563,0,3.5132,3.518,3.5212,3.5272,3.5306,3.5354,3.5385,3.5416,3.5428,3.5452,3.5513,3.5551,3.5603,3.562,3.5631,3.5693,3.5687,3.5683,3.5667,3.5708,3.573,3.5739,3.5632,3.5631,3.5631,3.5631,0,0,3.5177,3.5251,3.5263,3.5292,3.5347,3.5385,3.5433,3.5486,3.5513,3.5554,3.5596,3.566,3.5657,3.5687,3.5702,3.5733,3.5782,3.5725,3.5727,3.5736,3.5855,3.5859,3.5869,3.5785,3.5786,3.5788,3.5852,0,3.5231,3.5321,3.5345,3.5421,3.5466,3.548,3.5522,3.5561,3.5585,3.5627,3.5653,3.5699,3.569,3.5709,3.574,3.5769,3.5806,3.5765,3.5825,3.5827,3.5815,3.588,3.5885,3.5943,3.586,3.5862,3.5863,0,3.5307,3.5353,3.5434,3.5486,3.5506,3.5544,3.5595,3.5635,3.5679,3.5694,3.5729,3.5741,3.5793,3.5773,3.5845,3.5816,3.5842,3.586,3.5863,3.5871,3.5848,3.5892,3.5962,3.5972,3.5876,3.5875,3.5874,0,3.5335,3.5416,3.5475,3.5499,3.5561,3.5588,3.5614,3.5658,3.5688,3.5732,3.5753,3.5801,3.5829,3.5866,3.5891,3.5874,3.5962,3.5943,3.5976,3.5976,3.5995,3.5994,3.6073,3.6009,3.6009,3.6008,3.6008,0,3.5395,3.5445,3.5489,3.5526,3.5582,3.5609,3.5663,3.569,3.5729,3.5771,3.5784,3.5823,3.5853,3.5896,3.5916,3.5973,3.5985,3.5999,3.6004,3.5999,3.5998,3.6018,3.6015,3.6011,3.601,3.601,3.6009,0,3.5436,3.5468,3.5534,3.5588,3.5603,3.5642,3.5687,3.5723,3.5748,3.5802,3.5815,3.5854,3.5906,3.5935,3.5998,3.6012,3.6077,3.6078,3.6063,3.6065,3.6098,3.6095,3.6194,3.6209,3.6132,3.6133,3.6133,0,3.5473,3.5512,3.5571,3.5601,3.5629,3.5676,3.5709,3.5737,3.5769,3.5824,3.5854,3.5907,3.5951,3.6032,3.6066,3.6115,3.6119,3.6151,3.6127,3.6122,3.6123,3.6121,3.6126,3.6155,3.6156,3.6156,3.6157,0,3.5537,3.5551,3.5598,3.5651,3.5689,3.5732,3.5774,3.5797,3.5832,3.5868,3.5922,3.5956,3.6023,3.6076,3.6128,3.6155,3.6162,3.6164,3.6175,3.6171,3.6161,3.617,3.6076,3.6162,3.6161,3.6161,3.6161,3.6161,3.5579,3.5615,3.5663,3.5715,3.575,3.5789,3.5827,3.5857,3.5903,3.5961,3.5974,3.6031,3.6076,3.6148,3.6176,3.6221,3.6215,3.623,3.6234,3.6238,3.624,3.6153,3.623,3.623,3.623,3.623,3.623,0,3.5645,3.5677,3.5725,3.5784,3.5825,3.583,3.5877,3.5911,3.5962,3.6003,3.6047,3.611,3.6161,3.6199,3.6252,3.6281,3.6285,3.6294,3.6293,3.6299,3.6241,3.6228,3.6289,3.6289,3.6289,3.6289,3.6289,3.6289,3.5685,3.5747,3.5767,3.5847,3.5878,3.5936,3.5963,3.5999,3.6033,3.6103,3.6147,3.6172,3.6212,3.6268,3.6316,3.6325,3.6345,3.6353,3.6364,3.6309,3.6303,3.6297,3.6285,3.6357,3.6357,3.6418,3.6419,3.6419]}]]